Location: Newark
(30.0333°N, 31.2167°E)
Time: 03:01:40
(UTC+00:00)

Tiros 1 despin weight - Pass Details

Date: 25 January 2020
Orbit: 594 x 642 km, 48.2° (Epoch: 16 February)

Event Time Altitude Azimuth Distance (km) Brightness Sun altitude
Rises 07:57:46 0° 224° (SW) 2,827 ? 31.8°
Reaches altitude 10° 08:00:02 10° 223° (SW) 1,934 ? 32.1°
Maximum altitude 08:04:28 79° 137° (SE) 621 ? 32.7°
Drops below altitude 10° 08:08:59 10° 51° (NE) 1,970 ? 33.2°
Sets 08:11:19 0° 50° (NE) 2,886 ? 33.5°
